Location: Krakow
(50.0830°N, 19.9170°E)
Time: 19:37:33
(UTC+01:00)

Transit 2A - Pass Details

Date: 10 February 2023
Orbit: 591 x 964 km, 66.7° (Epoch: 21 March)

Event Time Altitude Azimuth Distance (km) Brightness Sun altitude
Rises 00:20:47 0° 320° (NW) 3,509 - -54.0°
Reaches altitude 10° 00:23:19 10° 315° (NW) 2,608 - -53.9°
Maximum altitude 00:29:10 48° 243° (WSW) 1,227 - -53.7°
Drops below altitude 10° 00:35:13 10° 172° (S) 2,694 - -53.5°
Sets 00:37:52 0° 166° (SSE) 3,634 - -53.3°
